Regional Weather Roundup
Issued by NWS Upton, NY

Current Version | Previous Version | Graphics & Text | Print | Product List | Glossary Off
Versions: 1 2 3 4 5 6 7 8 9 10 11 12 13 14 15 16 17 18 19 20 21 22 23 24 25 26 27 28 29 30 31 32 33 34 35 36 37 38 39 40 41 42 43 44 45 46 47 48 49 50

000
ASUS41 KOKX 181507
RWROKX

REGIONAL WEATHER ROUNDUP
NATIONAL WEATHER SERVICE NEW YORK NY
1100 AM EDT SAT APR 18 2015

NOTE: "FAIR" INDICATES FEW OR NO CLOUDS BELOW 12,000 FEET WITH NO
SIGNIFICANT WEATHER AND/OR OBSTRUCTIONS TO VISIBILITY.

NYZ071-072-176-178-NJZ106-104-181600-
NEW YORK CITY METRO AREA


CITY           SKY/WX    TMP DP  RH WIND       PRES   REMARKS
CENTRAL PARK   SUNNY     71  42  35 VRB6      30.01F
LAGUARDIA APRT MOSUNNY   69  43  38 W6        29.99S
KENNEDY INTL   MOSUNNY   68  45  43 SW8       30.01S
NEWARK/LIBERTY MOSUNNY   73  43  33 VRB3      29.99F
BRNX BOT. GARD   N/A     70  43  37 W5        30.00F
TETERBORO      SUNNY     70  44  39 VRB3      29.98F
$$

NYZ177-179-078>081-181600-
LONG ISLAND NEW YORK

CITY           SKY/WX    TMP DP  RH WIND       PRES   REMARKS
FARMINGDALE    SUNNY     69  47  45 W7        29.99F
ISLIP          MOSUNNY   71  44  37 W12       29.97F
SHIRLEY        LGT RAIN  70  43  37 W12       29.98F
WESTHAMPTON    SUNNY     69  48  47 VRB5      29.99S
MONTAUK POINT    N/A     64  46  52 W8        29.98F
$$

NYZ052-065-067-181600-
HUDSON VALLEY

CITY           SKY/WX    TMP DP  RH WIND       PRES   REMARKS
WHITE PLAINS   SUNNY     68  45  43 NW7       29.98F
NEWBURGH       SUNNY     66  46  48 W12       29.99F
MONTGOMERY     SUNNY     70  43  37 W13G18    29.97F
POUGHKEEPSIE   SUNNY     68  44  42 SW7       29.97S
ALBANY         MOSUNNY   66  41  40 SW8       29.94F
$$

NJZ001-105-106-008-010-013-015-019>022-104-181600-
NEW JERSEY

CITY           SKY/WX    TMP DP  RH WIND       PRES   REMARKS
NEWARK/LIBERTY MOSUNNY   73  43  33 VRB3      29.99F
TETERBORO      SUNNY     70  44  39 VRB3      29.98F
CALDWELL       SUNNY     69  41  36 VRB5      29.99F
MORRISTOWN     SUNNY     72  37  28 CALM      30.00S
SOMERVILLE     SUNNY     71  44  37 W6        29.98F
SUSSEX         SUNNY     69  41  36 VRB3      30.00S
ANDOVER          N/A     69  37  30 CALM      30.00S
TRENTON        SUNNY     71  45  39 NW8       30.01F
MILLVILLE      SUNNY     71  44  37 VRB5      30.02S
ATLANTIC CITY  SUNNY     73  45  36 NW7       30.01F
WRIGHTSTOWN    SUNNY     71  46  40 NW5       29.98S
TOMS RIVER     SUNNY     72  45  37 W9        30.01F
BELMAR         SUNNY     72  45  37 W12       30.01S
$$

PAZ047>061-062-071-181600-
EASTERN PENNSYLVANIA

CITY           SKY/WX    TMP DP  RH WIND       PRES   REMARKS
PHILADELPHIA   PTSUNNY   70  48  45 S6        30.02F
ALLENTOWN      SUNNY     70  44  39 W6        30.01F
SCRANTON       SUNNY     66  41  40 SW8       30.00F
$$

CTZ002-004>006-009-010-012-RIZ004-006-007-MAZ004-011-015-181600-
SOUTHERN NEW ENGLAND
 IN CT

CITY           SKY/WX    TMP DP  RH WIND       PRES   REMARKS
BRADLEY INTL   MOSUNNY   70  40  33 W10G22    29.94F
HARTFORD       SUNNY     66  46  48 SE7G16    29.95F
DANBURY        SUNNY     66  45  46 SW9       29.99F
WTRBRY/OXFORD  SUNNY     63  45  51 W7        29.99F
BRIDGEPORT     SUNNY     60  47  61 SW12      29.98F
MERIDEN        SUNNY     70  41  34 W7        29.96F
NEW HAVEN      SUNNY     59  47  64 SW8       29.97F
CHESTER        FAIR      66  43  42 W8        29.97F
GROTON         SUNNY     54  44  69 SW8       29.96S
WILLIMANTIC    SUNNY     67  45  45 W12       29.96S

 IN RI

CITY           SKY/WX    TMP DP  RH WIND       PRES   REMARKS
PROVIDENCE     SUNNY     69  43  38 NW8       29.94F
BLOCK ISLAND   SUNNY     61  46  59 W10       29.97F
WESTERLY       SUNNY     61  47  59 SW7       29.97S

 IN MA

CITY           SKY/WX    TMP DP  RH WIND       PRES   REMARKS
BOSTON         SUNNY     57  38  48 E16       29.96S
WORCESTER      SUNNY     62  37  39 W14G20    29.96S
WESTFIELD      SUNNY     69  39  33 VRB7G22   29.94F
PROVINCETOWN   SUNNY     52  43  71 N7        29.96R
NANTUCKET      SUNNY     60  48  64 SW9       29.94F
$$

ANZ330-335-338-340-345-350-353-355-181600-
COASTAL MARINE OBSERVATIONS


STATION/POSITION TIME  SKY/WX   TEMP    WIND        PRES    VSBY  WAVE
                                AIR SEA DIR/SP/G                  HT/PER
                 (UTC)          (F)     (DEG/KT/KT) (MB)    (MI)  (FT/S)
NY HARB ENTRANCE 1450            56 48  260/  6/  6 1015.9          3/ 7
4S FIRE IS       1403               45                N/A           3/ 7
20S FIRE ISLAND  1350               45              1016.4          3/ 6
23SW MTP         NOT AVBL
HUDSON CANYON    NOT AVBL
EXECUTION ROCKS  NOT AVBL
WESTERN LI SOUND NOT AVBL
CENTRAL LI SOUND NOT AVBL
EASTERN LI SOUND 1400            47     250/  8/  8   N/A
ROBBINS REEF     1400            64     260/  3/  3 1014.9
$$


>>>>>>>>>>>>>>>>>>>>>>>>>>>> KEY <<<<<<<<<<<<<<<<<<<<<<<<<<<
>                                                          <
>     SKY/WX - SKY CONDITION/PRESENT WEATHER               <
>     TMP    - TEMPERATURE IN FAHRENHEIT                   <
>     DP     - DEWPOINT IN FAHRENHEIT                      <
>     RH     - RELATIVE HUMIDITY IN PERCENT                <
>     WIND   - DIRECTION AND SPEED IN MPH                  <
>     PRES   - MEAN SEA LEVEL PRESSURE IN INCHES OF HG     <
>     WCI    - WIND CHILL INDEX                            <
>     VSB    - VISIBILITY IN MILES                         <
>     HX     - HEAT INDEX                                  <
>     TC     - TEMPERATURE IN CELSIUS                      <
>     VRB    - VARIABLE WIND DIRECTION                     <
>                                                          <
>>>>>>>>>>>>>>>>>>>>>>>>>>>> KEY <<<<<<<<<<<<<<<<<<<<<<<<<<<





USA.gov is the U.S. government's official web portal to all federal, state and local government web resources and services.